Regional Weather Roundup
Issued by NWS Glasgow, MT

Home | Current Version | Previous Version | Text Only | Print | Product List | Glossary On
Versions: 1 2 3 4 5 6 7 8 9 10 11 12 13 14 15 16 17 18 19 20 21 22 23 24 25 26
000
ASUS45 KGGW 240815
RWRGGW
HOURLY REGIONAL WEATHER ROUNDUP FOR NORTHEAST MONTANA
NATIONAL WEATHER SERVICE GLASGOW MONTANA
200 AM MDT TUE APR 24 2018

NOTE: "FAIR" INDICATES FEW OR NO CLOUDS BELOW 12,000 FEET WITH NO
SIGNIFICANT WEATHER AND/OR OBSTRUCTIONS TO VISISBILITY.

NORTHEAST MONTANA


CITY           SKY/WX    TMP DP  RH WIND       PRES   REMARKS
GLASGOW        PTCLDY    34  24  67 E3        30.43S
PLENTYWOOD       N/A     37  25  61 NW5         N/A
WOLF POINT     MOCLDY    28  23  81 SW6       30.45R
JORDAN           N/A     35  32  88 W6        30.45R
WINNETT          N/A     35  32  88 S3          N/A
SIDNEY         MOCLDY    34  25  69 NW10      30.44R
GLENDIVE       PTCLDY    35  31  85 NW13      30.45R
MALTA            N/A     33  28  81 CALM        N/A

FORT PECK REPORTS


CITY           SKY/WX    TMP DP  RH WIND       PRES   REMARKS
FORT PECK        N/A     39  27  62 SE3         N/A
THE PINES        N/A     40  24  53 SW3         N/A

SOUTHEAST MONTANA


CITY           SKY/WX    TMP DP  RH WIND       PRES   REMARKS
BILLINGS       CLOUDY    35  34  96 SW9       30.49R
MILES CITY     CLOUDY    36  35  96 SW8       30.47R
BAKER          CLOUDY    34  33  96 VRB3      30.44R
LIVINGSTON     MOCLDY    27  25  92 SW6       30.48S

CENTRAL MONTANA


CITY           SKY/WX    TMP DP  RH WIND       PRES   REMARKS
HAVRE          CLEAR     32  26  78 SW5       30.44S
LEWISTOWN      PTCLDY    29  27  92 SE5       30.47S
GREAT FALLS    CLEAR     30  24  78 S10       30.45F
CUT BANK       CLEAR     35  21  56 SW6       30.42S
HELENA         CLEAR     33  28  81 CALM      30.48R
BUTTE          CLEAR     27  23  85 S6        30.46S
BOZEMAN        PTCLDY    34  28  79 CALM      30.48S

WESTERN MONTANA


CITY           SKY/WX    TMP DP  RH WIND       PRES   REMARKS
MISSOULA       CLEAR     32  24  72 CALM      30.46R
KALISPELL      NOT AVBL

NORTH DAKOTA


CITY           SKY/WX    TMP DP  RH WIND       PRES   REMARKS
WILLISTON      PTCLDY    29  22  75 CALM      30.44R
DICKINSON      CLOUDY    38  32  79 N6        30.36S
MINOT          PTCLDY    33  25  72 NW10      30.38R
BISMARCK       RAIN      41  36  82 N21G26    30.34R

SOUTHERN SASKATCHEWAN


CITY           SKY/WX    TMP DP  RH WIND       PRES   REMARKS
REGINA         CLEAR     30  23  74 SW5       30.40S
ESTEVAN        PTCLDY    27  21  80 W6        30.41R
SWIFT CURRENT  CLEAR     34  21  60 S12       30.39S





USA.gov is the U.S. government's official web portal to all federal, state and local government web resources and services.